EW2337 Weather Reports


Display with metric or nautical units.
time (UTC)temp
F
wind
direction
speed
MPH
gust
MPH
rain 1hr
in
rain 24hr
in
rain mn
in
humidity
%
barometer
mb
20260506211655 72 253 2.0 7.0 0.00 0.06 0.06 74 1008.9
20260506211503 71 244 3.0 10.0 0.00 0.06 0.06 74 1009.8
20260506211152 71 261 1.0 10.0 0.00 0.06 0.06 74 1008.8
20260506211003 71 245 3.0 10.0 0.00 0.06 0.06 75 1009.7
20260506210649 71 264 6.0 9.0 0.00 0.06 0.06 75 1008.9
20260506210503 71 245 3.0 10.0 0.00 0.06 0.06 74 1009.8
20260506210146 71 273 4.0 9.0 0.00 0.06 0.06 75 1008.8
20260506210003 71 245 4.0 11.0 0.00 0.06 0.06 75 1009.7
20260506205644 70 258 1.0 8.0 0.00 0.06 0.06 76 1008.6
20260506205503 70 245 4.0 11.0 0.00 0.06 0.06 75 1009.7
20260506205144 69 286 5.0 11.0 0.00 0.06 0.06 76 1008.8
20260506205003 70 249 3.0 9.0 0.00 0.06 0.06 76 1009.4
20260506204642 69 246 1.0 5.0 0.00 0.06 0.06 77 1008.6
20260506204503 69 242 3.0 10.0 0.00 0.06 0.06 77 1009.7
20260506204138 69 250 2.0 7.0 0.00 0.06 0.06 78 1008.8
20260506204003 69 244 3.0 10.0 0.00 0.06 0.06 78 1009.9
20260506203637 69 253 1.0 6.0 0.00 0.06 0.06 78 1008.6
20260506203503 69 244 2.0 10.0 0.00 0.06 0.06 78 1009.7
20260506203133 68 255 0.0 10.0 0.00 0.06 0.06 78 1008.8
20260506203003 69 240 3.0 13.0 0.00 0.06 0.06 78 1009.5
20260506202631 69 236 3.0 6.0 0.00 0.06 0.06 78 1008.5
20260506202503 69 242 3.0 13.0 0.00 0.06 0.06 78 1009.7
20260506202127 69 266 4.0 13.0 0.00 0.06 0.06 77 1008.5
20260506202003 69 244 4.0 16.0 0.00 0.06 0.06 77 1009.7
20260506201624 69 237 2.0 8.0 0.00 0.06 0.06 77 1008.5
20260506201503 69 247 4.0 16.0 0.00 0.06 0.06 77 1009.5
20260506201121 69 230 3.0 5.0 0.00 0.06 0.06 78 1008.6
20260506201003 69 247 4.0 10.0 0.00 0.06 0.06 78 1009.5
20260506200617 68 238 1.0 10.0 0.00 0.06 0.06 78 1008.6
20260506200503 68 244 4.0 11.0 0.00 0.06 0.06 78 1009.5
20260506200114 68 266 4.0 11.0 0.00 0.06 0.06 79 1008.6
20260506200003 67 243 3.0 11.0 0.00 0.06 0.06 79 1009.5
20260506195611 67 224 1.0 11.0 0.00 0.06 0.06 80 1008.9
20260506195503 67 246 3.0 11.0 0.00 0.06 0.06 80 1009.7
20260506195107 67 233 3.0 5.0 0.00 0.06 0.06 80 1008.9
20260506195003 67 246 2.0 8.0 0.00 0.06 0.06 81 1009.8
20260506194605 66 251 2.0 3.0 0.00 0.06 0.06 81 1009.2
20260506194503 66 250 3.0 11.0 0.00 0.06 0.06 81 1009.7
20260506194101 66 241 3.0 5.0 0.00 0.06 0.06 81 1009.1
20260506194003 66 250 3.0 11.0 0.00 0.06 0.06 81 1010.0
20260506193559 66 260 3.0 3.0 0.00 0.06 0.06 81 1009.0
20260506193503 66 246 3.0 8.0 0.00 0.06 0.06 81 1010.1
20260506193056 66 236 6.0 8.0 0.00 0.06 0.06 81 1009.0
20260506193003 66 246 3.0 13.0 0.00 0.06 0.06 81 1009.8
20260506192552 66 236 2.0 13.0 0.00 0.06 0.06 81 1009.3
20260506192503 66 241 4.0 13.0 0.00 0.06 0.06 81 1010.1
20260506192048 66 237 2.0 8.0 0.00 0.06 0.06 81 1009.4
20260506192024 66 238 3.0 9.0 0.00 0.06 0.06 81 1010.1
20260506191545 66 224 3.0 6.0 0.00 0.06 0.06 81 1009.4
20260506191503 66 241 3.0 11.0 0.00 0.06 0.06 81 1010.2
20260506191041 66 237 3.0 7.0 0.00 0.06 0.06 81 1009.3
20260506191003 66 246 3.0 11.0 0.00 0.06 0.06 81 1010.3
20260506190539 66 249 7.0 8.0 0.00 0.06 0.06 81 1009.5
20260506190524 66 249 3.0 11.0 0.00 0.06 0.06 81 1010.3
20260506190036 66 244 2.0 7.0 0.00 0.06 0.06 81 1009.3
20260506190003 66 248 3.0 10.0 0.00 0.06 0.06 82 1010.2
20260506185533 66 239 5.0 8.0 0.00 0.06 0.06 81 1009.1
20260506185524 66 241 3.0 10.0 0.00 0.06 0.06 81 1010.3
20260506185029 66 208 2.0 6.0 0.00 0.06 0.06 82 1009.1
20260506185003 65 242 4.0 15.0 0.00 0.06 0.06 81 1010.0
20260506184527 66 225 7.0 10.0 0.00 0.06 0.06 81 1009.4
20260506184503 65 239 4.0 15.0 0.00 0.06 0.06 82 1010.3
20260506184024 65 241 5.0 8.0 0.00 0.06 0.06 82 1009.4
20260506184003 65 236 3.0 14.0 0.00 0.06 0.06 82 1010.2
20260506183519 65 249 2.0 5.0 0.00 0.06 0.06 83 1009.6
20260506183503 65 241 3.0 8.0 0.00 0.06 0.06 83 1010.3
20260506183016 65 236 0.0 5.0 0.00 0.06 0.06 83 1009.3
20260506183003 65 243 2.0 8.0 0.00 0.06 0.06 83 1010.6
20260506182514 65 240 1.0 8.0 0.00 0.06 0.06 83 1009.4
20260506182502 65 247 2.0 11.0 0.00 0.06 0.06 83 1010.7
20260506182011 65 248 2.0 5.0 0.00 0.06 0.06 84 1009.7
20260506182002 65 247 2.0 11.0 0.00 0.06 0.06 84 1010.4
20260506181509 65 307 2.0 8.0 0.00 0.06 0.06 84 1009.7
20260506181502 65 253 2.0 8.0 0.00 0.06 0.06 84 1010.7
20260506181005 64 257 3.0 5.0 0.00 0.06 0.06 84 1009.7
20260506181003 64 254 2.0 8.0 0.00 0.06 0.06 84 1010.8
20260506180503 64 243 2.0 8.0 0.00 0.06 0.06 85 1010.5
20260506180003 64 243 2.0 6.0 0.00 0.06 0.06 86 1010.7
20260506175958 64 250 0.0 2.0 0.00 0.06 0.06 86 1009.9
20260506175503 64 238 2.0 6.0 0.00 0.06 0.06 86 1010.9
20260506175455 64 17 2.0 6.0 0.00 0.06 0.06 86 1009.8
20260506175003 64 244 2.0 6.0 0.00 0.06 0.06 86 1010.8
20260506174951 64 241 1.0 3.0 0.00 0.06 0.06 86 1009.7
20260506174503 63 237 2.0 9.0 0.00 0.06 0.06 87 1010.7
20260506174450 63 254 3.0 5.0 0.00 0.06 0.06 87 1009.9
20260506174024 63 228 2.0 9.0 0.00 0.06 0.06 87 1010.9
20260506173946 63 235 1.0 6.0 0.00 0.06 0.06 87 1009.9
20260506173503 63 238 3.0 14.0 0.00 0.06 0.06 86 1010.9
20260506173444 63 234 1.0 2.0 0.00 0.06 0.06 86 1010.0
20260506173024 63 237 3.0 14.0 0.00 0.06 0.06 86 1010.8
20260506172940 63 253 3.0 7.0 0.00 0.06 0.06 86 1009.9
20260506172503 63 234 2.0 4.0 0.00 0.06 0.06 86 1011.0
20260506172437 63 226 3.0 5.0 0.00 0.06 0.06 86 1010.3
20260506172003 63 224 2.0 7.0 0.00 0.06 0.06 87 1010.8
20260506171934 63 251 1.0 5.0 0.00 0.06 0.06 86 1010.0
20260506171503 63 216 2.0 7.0 0.01 0.06 0.06 86 1010.7
20260506171431 63 131 5.0 7.0 0.00 0.06 0.06 87 1010.0
20260506171003 63 226 2.0 6.0 0.01 0.06 0.06 87 1011.1
20260506170929 63 192 5.0 6.0 0.00 0.06 0.06 87 1010.0
20260506170524 63 232 1.0 7.0 0.02 0.06 0.06 87 1010.9
20260506170425 63 311 2.0 3.0 0.00 0.06 0.06 87 1010.3
20260506170003 63 238 2.0 7.0 0.02 0.06 0.06 87 1011.1
20260506165924 63 244 1.0 7.0 0.00 0.06 0.06 87 1010.2
20260506165524 63 241 2.0 6.0 0.02 0.06 0.06 87 1011.0
20260506165422 63 247 1.0 2.0 0.00 0.06 0.06 87 1010.2
20260506165003 63 236 2.0 7.0 0.02 0.06 0.06 87 1011.2
20260506164918 63 251 1.0 6.0 0.00 0.06 0.06 87 1010.2
20260506164524 63 247 2.0 9.0 0.03 0.06 0.06 87 1011.0
20260506164415 63 215 2.0 3.0 0.00 0.06 0.06 87 1010.5
20260506164003 63 233 2.0 9.0 0.03 0.06 0.06 87 1011.0
20260506163913 63 237 0.0 9.0 0.00 0.06 0.06 87 1010.2
20260506163524 63 217 2.0 8.0 0.04 0.06 0.06 87 1011.2
20260506163407 63 286 2.0 3.0 0.00 0.06 0.06 87 1010.0
20260506163003 63 213 2.0 9.0 0.04 0.06 0.06 87 1011.2
20260506162902 63 248 1.0 6.0 0.00 0.06 0.06 87 1010.4
20260506162503 64 206 2.0 9.0 0.05 0.06 0.06 87 1011.5
20260506162400 64 239 2.0 9.0 0.07 0.06 0.06 86 1010.6
20260506162003 64 211 2.0 6.0 0.05 0.06 0.06 87 1011.3
20260506161858 64 211 1.0 2.0 0.07 0.06 0.06 87 1010.4
20260506161503 64 224 2.0 6.0 0.04 0.05 0.05 87 1011.4
20260506161355 64 213 1.0 2.0 0.07 0.05 0.05 87 1010.6
20260506161003 63 238 2.0 6.0 0.05 0.05 0.05 86 1011.4
20260506160853 63 265 1.0 5.0 0.07 0.05 0.05 87 1010.7
20260506160503 63 237 2.0 6.0 0.04 0.04 0.04 87 1011.5
20260506160349 63 196 1.0 2.0 0.00 0.04 0.04 86 1010.8
20260506160024 63 231 1.0 4.0 0.04 0.04 0.04 86 1011.7
20260506155848 63 261 1.0 3.0 0.00 0.04 0.04 86 1011.3
20260506155524 64 235 1.0 7.0 0.04 0.04 0.04 86 1012.0
20260506155345 64 263 1.0 5.0 0.05 0.04 0.04 86 1011.2
20260506155003 64 244 2.0 7.0 0.04 0.04 0.04 85 1012.3
20260506154503 64 245 3.0 10.0 0.03 0.03 0.03 84 1012.3
20260506154003 64 247 3.0 10.0 0.03 0.03 0.03 83 1012.2
20260506153503 64 249 2.0 7.0 0.02 0.02 0.02 83 1012.0
20260506153003 64 251 2.0 6.0 0.02 0.02 0.02 82 1012.1
20260506152959 64 259 2.0 6.0 0.05 0.02 0.02 82 1011.4
20260506152503 65 246 2.0 8.0 0.01 0.01 0.01 82 1012.2
20260506152456 65 268 3.0 6.0 0.00 0.01 0.01 82 1011.2
20260506152003 65 243 2.0 10.0 0.01 0.01 0.01 81 1012.4
20260506151954 65 251 2.0 8.0 0.07 0.01 0.01 81 1011.2
20260506151503 65 248 2.0 10.0 0.01 0.01 0.01 80 1012.0
20260506151451 65 230 2.0 8.0 0.07 0.01 0.01 80 1011.0
20260506151003 65 249 2.0 9.0 0.00 0.00 0.00 79 1012.1
20260506150949 66 258 2.0 5.0 0.00 0.00 0.00 79 1011.2
20260506150503 66 248 3.0 11.0 0.00 0.00 0.00 78 1012.0
20260506150444 66 249 2.0 6.0 0.00 0.00 0.00 78 1011.2
20260506150003 66 243 3.0 11.0 0.00 0.00 0.00 77 1012.2
20260506145942 66 240 2.0 6.0 0.00 0.00 0.00 77 1011.0
20260506145503 67 247 3.0 9.0 0.00 0.00 0.00 75 1012.0
20260506145438 67 236 3.0 9.0 0.00 0.00 0.00 74 1011.2
20260506145003 68 249 3.0 10.0 0.00 0.00 0.00 73 1012.1
20260506144936 68 259 2.0 6.0 0.00 0.00 0.00 72 1011.1
20260506144503 68 248 4.0 13.0 0.00 0.00 0.00 71 1011.7
20260506144432 68 218 3.0 10.0 0.00 0.00 0.00 71 1011.2
20260506144003 68 254 4.0 13.0 0.00 0.00 0.00 71 1012.1
20260506143931 68 243 3.0 7.0 0.00 0.00 0.00 71 1011.4
20260506143503 68 255 4.0 13.0 0.00 0.00 0.00 72 1012.1
20260506143427 68 245 1.0 8.0 0.00 0.00 0.00 71 1011.0
20260506143003 68 252 4.0 13.0 0.00 0.00 0.00 71 1012.0
20260506142925 68 264 5.0 8.0 0.00 0.00 0.00 71 1011.2
20260506142503 68 245 3.0 13.0 0.00 0.00 0.00 71 1012.0
20260506142423 68 265 2.0 7.0 0.00 0.00 0.00 71 1011.4
20260506142024 68 245 3.0 9.0 0.00 0.00 0.00 70 1012.3
20260506141921 68 289 4.0 7.0 0.00 0.00 0.00 70 1011.1
20260506141503 68 247 3.0 9.0 0.00 0.00 0.00 70 1012.2
20260506141419 68 231 3.0 7.0 0.00 0.00 0.00 70 1011.2
20260506141002 68 248 3.0 9.0 0.00 0.00 0.00 70 1012.0
20260506140917 68 246 5.0 8.0 0.00 0.00 0.00 70 1011.3
20260506140524 68 245 3.0 11.0 0.00 0.00 0.00 69 1012.1
20260506140413 69 250 0.0 5.0 0.00 0.00 0.00 70 1011.3
20260506140003 69 242 4.0 11.0 0.00 0.00 0.00 69 1012.0
20260506135911 69 274 7.0 11.0 0.00 0.00 0.00 69 1011.1
20260506135503 70 244 3.0 14.0 0.00 0.00 0.00 68 1012.1
20260506135408 70 179 3.0 8.0 0.00 0.00 0.00 68 1011.3
20260506135024 71 243 3.0 14.0 0.00 0.00 0.00 66 1012.1
20260506134904 72 280 7.0 14.0 0.00 0.00 0.00 66 1011.0
20260506134503 71 226 2.0 9.0 0.00 0.00 0.00 65 1011.9
20260506134400 71 232 2.0 6.0 0.00 0.00 0.00 67 1011.3
20260506134024 70 231 3.0 9.0 0.00 0.00 0.00 68 1011.9
20260506133857 70 224 3.0 3.0 0.00 0.00 0.00 68 1010.9
20260506133503 69 228 3.0 9.0 0.00 0.00 0.00 70 1011.8
20260506133353 69 219 3.0 9.0 0.00 0.00 0.00 69 1011.2
20260506133003 68 227 2.0 7.0 0.00 0.00 0.00 70 1011.7
20260506132850 68 260 3.0 7.0 0.00 0.00 0.00 70 1011.2
20260506132503 67 237 2.0 7.0 0.00 0.00 0.00 71 1012.1
20260506132347 67 249 2.0 3.0 0.00 0.00 0.00 72 1011.4
20260506132003 67 238 2.0 8.0 0.00 0.00 0.00 72 1012.1
20260506131846 67 206 2.0 3.0 0.00 0.00 0.00 72 1011.1
20260506131503 67 239 3.0 8.0 0.00 0.00 0.00 72 1012.0
20260506131341 67 270 2.0 6.0 0.00 0.00 0.00 72 1011.3
20260506131003 67 221 3.0 8.0 0.00 0.00 0.00 72 1012.0
20260506130839 67 186 3.0 5.0 0.00 0.00 0.00 72 1011.3
20260506130503 67 226 3.0 14.0 0.00 0.00 0.00 72 1012.2
20260506130335 67 308 3.0 7.0 0.00 0.00 0.00 72 1011.1
20260506130004 67 243 4.0 14.0 0.00 0.00 0.00 72 1012.2
20260506125833 67 235 6.0 14.0 0.00 0.00 0.00 72 1011.4
20260506125503 67 247 3.0 11.0 0.00 0.00 0.00 73 1012.1
20260506125331 67 242 4.0 8.0 0.00 0.00 0.00 73 1011.8
20260506125003 67 228 2.0 8.0 0.00 0.00 0.00 74 1012.3
20260506124829 67 249 2.0 2.0 0.00 0.00 0.00 73 1011.6
20260506124503 67 217 3.0 8.0 0.00 0.00 0.00 73 1012.5
20260506124326 67 259 1.0 8.0 0.00 0.00 0.00 73 1011.2
20260506124003 67 225 2.0 7.0 0.00 0.00 0.00 73 1012.3
20260506123824 67 226 1.0 5.0 0.00 0.00 0.00 73 1011.7
20260506123503 67 235 2.0 7.0 0.00 0.00 0.00 74 1012.2
20260506123322 67 210 3.0 7.0 0.00 0.00 0.00 74 1011.4
20260506123003 67 215 2.0 7.0 0.00 0.00 0.00 74 1012.6
20260506122819 67 247 1.0 5.0 0.00 0.00 0.00 74 1011.2
20260506122503 67 199 2.0 8.0 0.00 0.00 0.00 75 1011.9
20260506122316 67 136 3.0 6.0 0.00 0.00 0.00 74 1011.5
20260506122002 67 207 2.0 8.0 0.00 0.00 0.00 75 1011.9
20260506121814 66 243 2.0 5.0 0.00 0.00 0.00 75 1011.6
20260506121503 66 212 1.0 6.0 0.00 0.00 0.00 76 1012.5
20260506121311 66 204 3.0 5.0 0.00 0.00 0.00 75 1011.5
20260506121002 67 207 2.0 6.0 0.00 0.00 0.00 75 1012.1
20260506120808 67 244 2.0 5.0 0.00 0.00 0.00 75 1011.4
20260506120503 67 208 2.0 6.0 0.00 0.00 0.00 75 1012.1
20260506120305 67 178 3.0 6.0 0.00 0.00 0.00 75 1011.3
20260506120003 67 213 2.0 6.0 0.00 0.00 0.00 75 1012.0
20260506115803 67 182 2.0 5.0 0.00 0.00 0.00 75 1011.2
20260506115524 67 220 1.0 10.0 0.00 0.00 0.00 75 1012.0
20260506115301 67 51 1.0 3.0 0.00 0.00 0.00 76 1011.1
20260506115003 66 215 1.0 10.0 0.00 0.00 0.00 76 1012.0
20260506114758 66 148 3.0 5.0 0.00 0.00 0.00 77 1011.3
20260506114503 66 221 1.0 8.0 0.00 0.00 0.00 77 1012.1
20260506114256 65 186 1.0 8.0 0.00 0.00 0.00 78 1011.5
20260506114003 65 212 1.0 4.0 0.00 0.00 0.00 78 1012.0
20260506113754 65 240 0.0 1.0 0.00 0.00 0.00 78 1011.1
20260506113503 65 207 1.0 4.0 0.00 0.00 0.00 78 1011.8
20260506113252 65 249 1.0 5.0 0.00 0.00 0.00 78 1011.2
20260506113003 65 214 1.0 6.0 0.00 0.00 0.00 78 1012.0
20260506112748 65 246 1.0 3.0 0.00 0.00 0.00 78 1011.1
20260506112503 65 214 1.0 6.0 0.00 0.00 0.00 78 1012.1
20260506112245 65 238 1.0 6.0 0.00 0.00 0.00 78 1011.3
20260506112003 65 218 1.0 4.0 0.00 0.00 0.00 79 1012.1
20260506111742 65 204 1.0 5.0 0.00 0.00 0.00 79 1011.4
20260506111503 65 216 1.0 6.0 0.00 0.00 0.00 79 1012.0
20260506111241 64 237 0.0 3.0 0.00 0.00 0.00 79 1011.1
20260506111003 64 208 2.0 6.0 0.00 0.00 0.00 79 1012.1
20260506110737 64 245 0.0 6.0 0.00 0.00 0.00 79 1011.3
20260506110503 64 211 1.0 4.0 0.00 0.00 0.00 79 1012.0
20260506110235 64 248 3.0 5.0 0.00 0.00 0.00 80 1011.4
20260506110003 64 210 1.0 7.0 0.00 0.00 0.00 80 1011.8
20260506105731 64 255 1.0 1.0 0.00 0.00 0.00 80 1011.2
20260506105503 64 218 1.0 7.0 0.00 0.00 0.00 80 1012.2
20260506105228 64 236 1.0 3.0 0.00 0.00 0.00 81 1011.2
20260506105003 64 218 1.0 4.0 0.00 0.00 0.00 81 1011.9
20260506104726 64 246 1.0 3.0 0.00 0.00 0.00 81 1011.2
20260506104503 64 207 1.0 4.0 0.00 0.00 0.00 81 1012.1
20260506104224 64 192 3.0 5.0 0.00 0.00 0.00 81 1011.4
20260506104003 63 216 1.0 3.0 0.00 0.00 0.00 81 1012.3
20260506103721 63 241 1.0 3.0 0.00 0.00 0.00 82 1011.3
20260506103503 63 226 1.0 3.0 0.00 0.00 0.00 82 1011.6
20260506103217 63 245 1.0 2.0 0.00 0.00 0.00 82 1011.2
20260506103003 63 221 1.0 4.0 0.00 0.00 0.00 82 1011.9
20260506102715 63 228 1.0 3.0 0.00 0.00 0.00 82 1011.2
20260506102503 63 227 1.0 4.0 0.00 0.00 0.00 82 1012.0
20260506102213 63 249 0.0 1.0 0.00 0.00 0.00 82 1011.1
20260506102003 63 223 1.0 3.0 0.00 0.00 0.00 82 1012.0
20260506101710 63 243 1.0 2.0 0.00 0.00 0.00 82 1011.3
20260506101503 63 219 1.0 3.0 0.00 0.00 0.00 82 1012.0
20260506101206 63 189 2.0 3.0 0.00 0.00 0.00 83 1011.2
20260506101003 63 221 1.0 3.0 0.00 0.00 0.00 83 1012.1
20260506100705 63 233 1.0 2.0 0.00 0.00 0.00 83 1011.2
20260506100503 63 221 1.0 3.0 0.00 0.00 0.00 83 1012.0
20260506100202 63 242 1.0 3.0 0.00 0.00 0.00 83 1011.0
20260506100004 63 220 1.0 3.0 0.00 0.00 0.00 83 1011.9
20260506095701 63 203 2.0 2.0 0.00 0.00 0.00 83 1011.2
20260506095524 63 223 1.0 3.0 0.00 0.00 0.00 83 1012.1
20260506095157 63 233 0.0 3.0 0.00 0.00 0.00 83 1011.0
20260506095024 62 224 1.0 3.0 0.00 0.00 0.00 83 1012.0
20260506094654 63 225 0.0 2.0 0.00 0.00 0.00 83 1011.2
20260506094503 63 224 1.0 3.0 0.00 0.00 0.00 83 1011.9
20260506094152 63 245 0.0 1.0 0.00 0.00 0.00 83 1011.4
20260506094003 63 241 0.0 2.0 0.00 0.00 0.00 83 1012.1
20260506093651 63 250 0.0 1.0 0.00 0.00 0.00 83 1011.3
20260506093503 63 232 0.0 2.0 0.00 0.00 0.00 82 1012.0
20260506093147 63 250 0.0 1.0 0.00 0.00 0.00 82 1011.3
20260506093003 63 229 0.0 2.0 0.00 0.00 0.00 82 1012.0
20260506092645 63 213 1.0 2.0 0.00 0.00 0.00 82 1011.3
20260506092503 63 231 0.0 2.0 0.00 0.00 0.00 82 1012.1
20260506092142 63 250 0.0 0.0 0.00 0.00 0.00 82 1011.2
20260506092003 63 236 0.0 2.0 0.00 0.00 0.00 82 1011.9
20260506091640 63 245 0.0 0.0 0.00 0.00 0.00 82 1011.1
20260506091503 63 234 1.0 3.0 0.00 0.00 0.00 82 1011.9
20260506091137 64 228 0.0 3.0 0.00 0.00 0.00 81 1011.2
20260506091003 64 229 1.0 3.0 0.00 0.00 0.00 82 1011.9
20260506090635 63 225 1.0 3.0 0.00 0.00 0.00 82 1011.3
20260506090503 63 221 0.0 3.0 0.00 0.00 0.00 82 1012.0
20260506090131 64 212 2.0 2.0 0.00 0.00 0.00 82 1011.2
20260506090003 64 213 0.0 3.0 0.00 0.00 0.00 81 1012.0
20260506085628 64 243 0.0 0.0 0.00 0.00 0.00 81 1011.2
20260506085503 64 212 0.0 3.0 0.00 0.00 0.00 81 1012.0
20260506085125 64 213 3.0 3.0 0.00 0.00 0.00 81 1011.2
20260506085024 64 228 0.0 2.0 0.00 0.00 0.00 81 1011.9
20260506084621 64 248 0.0 0.0 0.00 0.00 0.00 81 1011.1
20260506084503 64 227 0.0 2.0 0.00 0.00 0.00 80 1012.2
20260506084118 64 248 0.0 2.0 0.00 0.00 0.00 80 1011.2
20260506084003 64 224 1.0 3.0 0.00 0.00 0.00 80 1012.1
20260506083615 65 239 0.0 2.0 0.00 0.00 0.00 80 1011.3
20260506083503 65 219 1.0 3.0 0.00 0.00 0.00 80 1012.1
20260506083113 65 245 1.0 3.0 0.00 0.00 0.00 80 1011.0
20260506083024 65 219 1.0 3.0 0.00 0.00 0.00 80 1012.0
20260506082609 65 242 0.0 1.0 0.00 0.00 0.00 80 1011.2
20260506082503 65 231 1.0 2.0 0.00 0.00 0.00 79 1012.2
20260506082105 65 248 0.0 2.0 0.00 0.00 0.00 79 1011.4
20260506082003 65 225 1.0 3.0 0.00 0.00 0.00 79 1011.9
20260506081603 65 195 2.0 2.0 0.00 0.00 0.00 79 1011.3
20260506081503 65 226 1.0 3.0 0.00 0.00 0.00 79 1012.2
20260506081100 65 210 2.0 2.0 0.00 0.00 0.00 79 1011.5
20260506081003 65 232 1.0 3.0 0.00 0.00 0.00 79 1012.4
20260506080558 65 250 0.0 2.0 0.00 0.00 0.00 79 1011.4
20260506080524 65 226 1.0 3.0 0.00 0.00 0.00 79 1012.3
20260506073503 66 209 1.0 4.0 0.00 0.00 0.00 78 1012.2
20260506073038 66 213 0.0 1.0 0.00 0.00 0.00 77 1011.4
20260506073003 66 213 1.0 4.0 0.00 0.00 0.00 77 1012.3
20260506072535 66 221 1.0 3.0 0.00 0.00 0.00 77 1011.7
20260506072503 66 213 1.0 3.0 0.00 0.00 0.00 77 1012.1
20260506072033 66 218 0.0 0.0 0.00 0.00 0.00 77 1011.4
20260506072003 66 219 1.0 3.0 0.00 0.00 0.00 77 1012.0
20260506071531 66 243 2.0 2.0 0.00 0.00 0.00 77 1011.3
20260506071503 66 230 0.0 2.0 0.00 0.00 0.00 77 1012.1
20260506071028 66 243 0.0 1.0 0.00 0.00 0.00 77 1011.6
20260506071003 66 218 0.0 6.0 0.00 0.00 0.00 77 1012.3
20260506070525 66 248 0.0 3.0 0.00 0.00 0.00 77 1011.5
20260506070503 66 223 1.0 6.0 0.00 0.00 0.00 77 1012.2
20260506062503 66 234 0.0 2.0 0.00 0.00 0.00 77 1012.2
20260506062024 66 235 0.0 2.0 0.00 0.00 0.00 77 1012.4
20260506061959 66 207 0.0 0.0 0.00 0.00 0.00 77 1011.7
20260506061503 66 247 0.0 1.0 0.00 0.00 0.00 77 1012.5
20260506061455 66 250 0.0 1.0 0.00 0.00 0.00 77 1011.8
20260506061024 66 246 0.0 2.0 0.00 0.00 0.00 77 1012.3
20260506060953 66 251 0.0 0.0 0.00 0.00 0.00 77 1011.8
20260506060503 66 250 1.0 3.0 0.00 0.00 0.00 77 1012.4
20260506060451 66 250 1.0 2.0 0.00 0.00 0.00 77 1011.8
20260506051024 67 247 0.0 2.0 0.00 0.00 0.00 74 1012.7
20260506050920 67 256 0.0 0.0 0.00 0.00 0.00 74 1012.2
20260506050503 67 248 0.0 2.0 0.00 0.00 0.00 74 1012.9
20260506050417 67 255 1.0 1.0 0.00 0.00 0.00 74 1012.2
20260506045024 67 246 0.0 3.0 0.00 0.01 0.00 74 1012.8
20260506044908 67 255 0.0 3.0 0.00 0.00 0.00 74 1012.4
20260506044503 66 252 0.0 3.0 0.00 0.01 0.00 75 1013.1
20260506044406 66 245 0.0 0.0 0.00 0.00 0.00 75 1012.4
20260506044003 66 247 0.0 3.0 0.00 0.01 0.00 75 1012.8
20260506043903 66 255 1.0 1.0 0.00 0.00 0.00 75 1012.3
20260506043503 66 235 0.0 2.0 0.00 0.01 0.00 75 1013.0
20260506043359 66 235 1.0 2.0 0.00 0.00 0.00 75 1012.2
20260506043003 66 0 0.0 0.0 0.00 0.01 0.00 75 1012.8
20260506042858 66 248 0.0 0.0 0.00 0.00 0.00 75 1012.2
20260506042524 66 0 0.0 0.0 0.00 0.01 0.00 75 1013.1
20260506042357 66 240 0.0 0.0 0.00 0.00 0.00 75 1012.5
20260506042024 66 0 0.0 0.0 0.00 0.01 0.00 75 1013.1
20260506041855 66 254 0.0 0.0 0.00 0.00 0.00 74 1012.2
20260506041503 67 246 0.0 1.0 0.00 0.01 0.00 74 1012.9
20260506041354 67 249 0.0 0.0 0.00 0.00 0.00 74 1012.3
20260506041003 67 243 0.0 2.0 0.00 0.01 0.00 74 1013.2
20260506040849 67 242 0.0 1.0 0.00 0.00 0.00 73 1012.3
20260506040503 67 228 1.0 3.0 0.00 0.01 0.00 73 1013.1
20260506040346 67 249 0.0 1.0 0.00 0.00 0.00 73 1012.3
20260506040004 67 221 1.0 3.0 0.00 0.01 0.00 73 1013.0
20260506035842 67 251 0.0 2.0 0.00 0.01 0.01 73 1012.3
20260506035524 67 229 1.0 2.0 0.00 0.01 0.01 73 1012.8
20260506035340 67 207 1.0 2.0 0.00 0.01 0.01 73 1012.1
20260506035003 67 224 1.0 3.0 0.00 0.01 0.01 73 1013.0
20260506034837 67 253 1.0 1.0 0.00 0.01 0.01 73 1012.2
20260506034503 67 213 1.0 3.0 0.00 0.01 0.01 73 1013.0
20260506034334 67 193 2.0 3.0 0.00 0.01 0.01 73 1012.3
20260506034003 67 213 1.0 4.0 0.00 0.01 0.01 72 1012.9
20260506033831 67 223 2.0 3.0 0.00 0.01 0.01 72 1012.2
20260506033503 67 218 1.0 4.0 0.00 0.01 0.01 72 1012.9
20260506033328 67 176 1.0 5.0 0.00 0.01 0.01 72 1011.9
20260506033003 67 210 1.0 6.0 0.00 0.01 0.01 72 1012.5
20260506032825 68 228 0.0 1.0 0.00 0.01 0.01 72 1012.0
20260506032503 67 206 2.0 6.0 0.00 0.01 0.01 72 1012.5
20260506032322 68 235 0.0 3.0 0.00 0.01 0.01 72 1011.9
20260506032003 67 209 1.0 6.0 0.00 0.01 0.01 72 1012.7
20260506031819 68 210 3.0 5.0 0.00 0.01 0.01 72 1012.2
20260506031503 67 213 1.0 4.0 0.00 0.01 0.01 72 1012.6
20260506031316 67 234 0.0 5.0 0.00 0.01 0.01 72 1012.0
20260506031024 67 231 0.0 3.0 0.00 0.01 0.01 72 1012.9
20260506030813 67 241 1.0 3.0 0.00 0.01 0.01 72 1012.1
20260506030524 67 225 1.0 4.0 0.00 0.01 0.01 72 1012.6
20260506030311 68 241 0.0 1.0 0.00 0.01 0.01 72 1012.0
20260506030003 67 224 1.0 4.0 0.00 0.01 0.01 72 1013.0
20260506025808 68 218 0.0 2.0 0.00 0.01 0.01 72 1012.3
20260506025503 67 230 1.0 3.0 0.00 0.01 0.01 72 1013.0
20260506025305 68 240 0.0 2.0 0.00 0.01 0.01 71 1012.0
20260506025003 67 241 1.0 3.0 0.00 0.01 0.01 71 1013.0
20260506024801 68 246 0.0 2.0 0.00 0.01 0.01 71 1012.3
20260506024503 68 238 1.0 4.0 0.00 0.01 0.01 71 1013.0
20260506024258 68 250 1.0 2.0 0.00 0.01 0.01 71 1012.4
20260506024003 68 232 1.0 4.0 0.00 0.01 0.01 71 1013.0
20260506023754 68 231 1.0 2.0 0.00 0.01 0.01 71 1012.4
20260506023503 68 229 1.0 4.0 0.00 0.01 0.01 71 1013.0
20260506023251 68 202 0.0 2.0 0.00 0.01 0.01 70 1012.4
20260506023003 68 224 1.0 4.0 0.00 0.01 0.01 70 1013.1
20260506022748 68 245 0.0 2.0 0.00 0.01 0.01 69 1012.4
20260506022503 68 217 1.0 7.0 0.00 0.01 0.01 69 1012.9
20260506022246 69 209 2.0 2.0 0.00 0.01 0.01 69 1012.4
20260506022003 69 223 1.0 7.0 0.00 0.01 0.01 68 1012.8
20260506021744 69 273 3.0 7.0 0.00 0.01 0.01 68 1012.2
20260506021503 69 222 1.0 7.0 0.00 0.01 0.01 68 1012.8
20260506021240 69 235 1.0 2.0 0.00 0.01 0.01 67 1012.1
20260506021003 69 215 1.0 7.0 0.00 0.01 0.01 67 1012.8
20260506020737 69 182 3.0 7.0 0.00 0.01 0.01 67 1012.0
20260506020503 69 216 1.0 8.0 0.00 0.01 0.01 66 1012.7
20260506020235 70 219 0.0 1.0 0.00 0.01 0.01 66 1012.1
20260506020003 70 218 1.0 8.0 0.00 0.01 0.01 65 1012.7
20260506015732 70 174 2.0 6.0 0.00 0.01 0.01 65 1012.0
20260506015503 70 233 1.0 4.0 0.00 0.01 0.01 65 1012.8
20260506015230 70 253 0.0 2.0 0.00 0.01 0.01 64 1012.0
20260506015003 70 222 1.0 6.0 0.00 0.01 0.01 64 1012.7
20260506014726 70 243 1.0 2.0 0.00 0.01 0.01 63 1011.9
20260506014503 71 218 1.0 6.0 0.00 0.01 0.01 63 1012.7
20260506014222 71 241 0.0 2.0 0.00 0.01 0.01 62 1012.0
20260506014003 71 218 1.0 6.0 0.00 0.01 0.01 62 1012.6
20260506013720 71 223 1.0 3.0 0.00 0.01 0.01 61 1011.5
20260506013503 71 228 1.0 4.0 0.00 0.01 0.01 61 1012.4
20260506013217 71 242 0.0 2.0 0.00 0.01 0.01 60 1011.8
20260506013003 71 212 1.0 6.0 0.00 0.01 0.01 60 1012.4
20260506012713 72 247 1.0 1.0 0.00 0.01 0.01 59 1011.5
20260506012503 72 210 1.0 6.0 0.00 0.01 0.01 59 1012.4
20260506012211 72 182 0.0 2.0 0.00 0.01 0.01 59 1011.7
20260506012003 72 226 1.0 4.0 0.00 0.01 0.01 59 1012.3
20260506011708 72 243 0.0 3.0 0.00 0.01 0.01 58 1011.3
20260506011503 72 230 1.0 7.0 0.00 0.01 0.01 58 1012.2
20260506011204 72 230 0.0 2.0 0.00 0.01 0.01 57 1011.5
20260506011003 72 224 1.0 7.0 0.00 0.01 0.01 57 1012.3
20260506010702 73 229 1.0 2.0 0.00 0.01 0.01 56 1011.5
20260506010503 73 215 1.0 6.0 0.00 0.01 0.01 57 1012.0
20260506010159 73 247 1.0 1.0 0.00 0.01 0.01 56 1011.3
20260506010003 73 208 2.0 6.0 0.00 0.01 0.01 56 1012.0
20260506005656 73 183 4.0 6.0 0.00 0.01 0.01 55 1011.4
20260506005503 73 212 2.0 6.0 0.00 0.01 0.01 55 1012.4
20260506005153 73 197 4.0 6.0 0.00 0.01 0.01 55 1011.2
20260506005003 73 222 1.0 4.0 0.00 0.01 0.01 54 1012.1
20260506004649 74 251 1.0 3.0 0.00 0.01 0.01 54 1011.3
20260506004503 74 217 1.0 9.0 0.00 0.01 0.01 54 1011.9
20260506004147 74 181 3.0 6.0 0.00 0.01 0.01 53 1011.2
20260506003643 74 246 2.0 9.0 0.00 0.01 0.01 53 1011.1
20260506003503 74 214 2.0 8.0 0.00 0.01 0.01 53 1012.0
20260506003139 74 191 4.0 7.0 0.00 0.01 0.01 53 1011.1
20260506003003 74 243 1.0 8.0 0.00 0.01 0.01 53 1011.9
20260506002635 74 241 0.0 2.0 0.00 0.01 0.01 53 1011.0
20260506002503 74 231 1.0 4.0 0.00 0.01 0.01 53 1011.9
20260506002131 74 240 0.0 3.0 0.00 0.01 0.01 53 1011.1
20260506002003 74 212 2.0 7.0 0.00 0.01 0.01 52 1011.6
20260506001627 74 251 3.0 3.0 0.00 0.01 0.01 52 1010.8
20260506001503 74 207 2.0 7.0 0.00 0.01 0.01 52 1011.5
20260506001125 74 228 3.0 7.0 0.00 0.01 0.01 52 1010.8
20260506001003 74 217 2.0 6.0 0.00 0.01 0.01 52 1011.8
20260506000622 74 214 1.0 6.0 0.00 0.01 0.01 52 1010.9
20260506000503 74 218 1.0 6.0 0.00 0.01 0.01 51 1011.5
20260506000119 75 218 1.0 5.0 0.00 0.01 0.01 51 1010.8
20260506000003 75 213 2.0 7.0 0.00 0.01 0.01 51 1011.2
20260505235617 75 236 0.0 6.0 0.00 0.01 0.01 51 1010.9
20260505235524 75 208 2.0 7.0 0.00 0.01 0.01 51 1011.5
20260505235114 75 256 2.0 5.0 0.00 0.01 0.01 50 1010.9
20260505235003 75 209 2.0 6.0 0.00 0.01 0.01 50 1011.5
20260505234611 75 238 1.0 2.0 0.00 0.01 0.01 50 1010.7
20260505234503 75 217 1.0 6.0 0.00 0.01 0.01 50 1011.5
20260505234107 75 199 5.0 6.0 0.00 0.01 0.01 50 1010.6
20260505234003 75 234 2.0 9.0 0.00 0.01 0.01 50 1011.5
20260505233605 76 144 3.0 6.0 0.00 0.01 0.01 50 1010.7
20260505233503 76 222 2.0 9.0 0.00 0.01 0.01 50 1011.5
20260505233102 76 246 1.0 8.0 0.00 0.01 0.01 50 1010.8
20260505233024 76 215 2.0 8.0 0.00 0.01 0.01 50 1011.5
20260505232600 76 239 0.0 5.0 0.00 0.01 0.01 50 1010.6
20260505232503 76 218 2.0 6.0 0.00 0.01 0.01 50 1011.4
20260505232057 76 252 2.0 5.0 0.00 0.01 0.01 50 1010.6
20260505232003 76 212 2.0 7.0 0.00 0.01 0.01 50 1011.3
20260505231554 76 237 3.0 6.0 0.00 0.01 0.01 50 1010.4
20260505231503 76 216 2.0 7.0 0.00 0.01 0.01 50 1011.4
20260505231053 76 249 1.0 3.0 0.00 0.01 0.01 50 1010.4
20260505231003 76 197 2.0 9.0 0.00 0.01 0.01 50 1011.2
20260505230550 77 200 4.0 6.0 0.00 0.01 0.01 49 1010.3
20260505230524 77 194 3.0 9.0 0.00 0.01 0.01 49 1011.3
20260505230046 77 192 4.0 6.0 0.00 0.01 0.01 48 1010.4
20260505230003 77 209 2.0 9.0 0.00 0.01 0.01 48 1011.0
20260505225543 78 212 2.0 5.0 0.00 0.01 0.01 48 1010.3
20260505225503 78 205 2.0 13.0 0.00 0.01 0.01 48 1011.1
20260505225039 78 239 1.0 3.0 0.00 0.01 0.01 48 1010.3
20260505225003 78 205 2.0 13.0 0.00 0.01 0.01 48 1011.0
20260505224536 78 177 3.0 5.0 0.00 0.01 0.01 48 1010.5
20260505224503 78 209 2.0 8.0 0.00 0.01 0.01 48 1011.0
20260505224034 78 144 2.0 8.0 0.00 0.01 0.01 47 1010.3
20260505224003 78 207 3.0 9.0 0.00 0.01 0.01 47 1011.0
20260505223530 79 219 1.0 9.0 0.00 0.01 0.01 47 1010.5
20260505223524 79 204 3.0 9.0 0.00 0.01 0.01 47 1011.3
20260505223026 79 248 2.0 9.0 0.00 0.01 0.01 46 1010.4
20260505223003 79 200 3.0 9.0 0.00 0.01 0.01 46 1011.2
20260505222523 80 248 2.0 9.0 0.00 0.01 0.01 46 1010.5
20260505222503 80 207 2.0 9.0 0.00 0.01 0.01 45 1011.4
20260505222019 80 250 2.0 8.0 0.00 0.01 0.01 45 1010.7
20260505222003 80 209 3.0 9.0 0.00 0.01 0.01 46 1011.3
20260505221516 80 176 2.0 9.0 0.00 0.01 0.01 46 1010.6
20260505221503 80 212 3.0 9.0 0.00 0.01 0.01 46 1011.4
20260505221013 79 225 2.0 7.0 0.00 0.01 0.01 46 1010.5
20260505221003 79 209 3.0 10.0 0.00 0.01 0.01 46 1011.4
20260505220510 80 214 6.0 10.0 0.00 0.01 0.01 46 1010.6
20260505220503 79 204 3.0 14.0 0.00 0.01 0.01 46 1011.2
20260505220008 80 212 3.0 14.0 0.00 0.01 0.01 44 1010.5
20260505220003 80 211 3.0 14.0 0.00 0.01 0.01 44 1011.4
20260505215506 82 169 2.0 9.0 0.00 0.01 0.01 41 1010.4
20260505215503 82 232 3.0 13.0 0.00 0.01 0.01 42 1011.2
20260505215003 83 248 3.0 14.0 0.00 0.01 0.01 39 1010.9
20260505214524 83 226 3.0 14.0 0.00 0.01 0.01 38 1010.8
20260505214502 83 328 5.0 10.0 0.00 0.01 0.01 39 1010.1
20260505214003 83 217 3.0 9.0 0.00 0.01 0.01 39 1011.0
20260505213958 83 218 3.0 7.0 0.00 0.01 0.01 39 1010.1
20260505213503 83 223 3.0 9.0 0.00 0.01 0.01 38 1011.1
20260505213456 83 245 1.0 6.0 0.00 0.01 0.01 38 1010.2
20260505213003 83 212 3.0 17.0 0.00 0.01 0.01 38 1011.3
20260505212952 83 178 1.0 9.0 0.00 0.01 0.01 38 1010.5
20260505212503 82 209 4.0 17.0 0.00 0.01 0.01 38 1011.2
20260505212449 82 189 7.0 17.0 0.00 0.01 0.01 38 1010.2
20260505212003 82 222 4.0 15.0 0.00 0.01 0.01 38 1010.9
20260505211945 82 199 5.0 15.0 0.00 0.01 0.01 38 1010.4